TimeCST,TemperatureF,Dew PointF,Humidity,Sea Level PressureIn,VisibilityMPH,Wind Direction,Wind SpeedMPH,Gust SpeedMPH,PrecipitationIn,Events,Conditions,WindDirDegrees,DateUTC
12:15 AM,6.8,3.2,85,30.09,5.0,Calm,Calm,-,N/A,,Clear,0,2013-01-05 06:15:00
12:35 AM,6.8,3.2,85,30.07,10.0,Calm,Calm,-,N/A,,Clear,0,2013-01-05 06:35:00
12:55 AM,5.0,3.2,92,30.06,7.0,ENE,4.6,-,N/A,,Clear,70,2013-01-05 06:55:00
1:15 AM,5.0,3.2,92,30.05,10.0,ENE,4.6,-,N/A,,Clear,70,2013-01-05 07:15:00
1:35 AM,8.6,5.0,85,30.05,7.0,East,4.6,-,N/A,,Clear,80,2013-01-05 07:35:00
1:55 AM,8.6,5.0,85,30.06,7.0,Calm,Calm,-,N/A,,Clear,0,2013-01-05 07:55:00
2:15 AM,8.6,5.0,85,30.06,7.0,Calm,Calm,-,N/A,,Clear,0,2013-01-05 08:15:00
2:35 AM,8.6,5.0,85,30.05,5.0,Calm,Calm,-,N/A,,Clear,0,2013-01-05 08:35:00
2:55 AM,3.2,1.4,92,30.06,7.0,Calm,Calm,-,N/A,,Clear,0,2013-01-05 08:55:00
3:15 AM,3.2,-0.4,85,30.05,7.0,South,5.8,-,N/A,,Clear,180,2013-01-05 09:15:00
3:35 AM,8.6,5.0,85,30.05,7.0,South,4.6,-,N/A,,Clear,180,2013-01-05 09:35:00
3:55 AM,8.6,3.2,79,30.05,7.0,South,3.5,-,N/A,,Clear,190,2013-01-05 09:55:00
4:15 AM,8.6,5.0,85,30.03,7.0,Calm,Calm,-,N/A,,Clear,0,2013-01-05 10:15:00
4:35 AM,8.6,5.0,85,30.03,7.0,Calm,Calm,-,N/A,,Clear,0,2013-01-05 10:35:00
4:55 AM,5.0,3.2,92,30.01,10.0,ENE,5.8,-,N/A,,Clear,60,2013-01-05 10:55:00
5:15 AM,6.8,5.0,92,30.00,10.0,Calm,Calm,-,N/A,,Clear,0,2013-01-05 11:15:00
5:35 AM,8.6,5.0,85,29.99,7.0,Calm,Calm,-,N/A,,Clear,0,2013-01-05 11:35:00
5:55 AM,10.4,6.8,85,29.98,7.0,SE,4.6,-,N/A,,Clear,130,2013-01-05 11:55:00
6:15 AM,10.4,6.8,85,29.97,7.0,SE,4.6,-,N/A,,Clear,130,2013-01-05 12:15:00
6:35 AM,10.4,8.6,92,29.97,10.0,Calm,Calm,-,N/A,,Clear,0,2013-01-05 12:35:00
6:55 AM,10.4,6.8,85,29.96,7.0,ESE,3.5,-,N/A,,Clear,120,2013-01-05 12:55:00
7:35 AM,10.4,8.6,92,29.95,10.0,SE,9.2,-,N/A,,Clear,140,2013-01-05 13:35:00
7:55 AM,12.2,8.6,85,29.95,7.0,ESE,5.8,-,N/A,,Clear,110,2013-01-05 13:55:00
8:15 AM,12.2,8.6,85,29.96,10.0,Calm,Calm,-,N/A,,Clear,0,2013-01-05 14:15:00
8:35 AM,10.4,8.6,92,29.96,10.0,SE,4.6,-,N/A,,Clear,130,2013-01-05 14:35:00
8:55 AM,10.4,8.6,92,29.95,10.0,SE,4.6,-,N/A,,Clear,130,2013-01-05 14:55:00
9:15 AM,12.2,10.4,92,29.94,10.0,ESE,3.5,-,N/A,,Clear,120,2013-01-05 15:15:00
9:55 AM,14.0,12.2,93,29.93,10.0,SE,5.8,-,N/A,,Clear,140,2013-01-05 15:55:00
10:15 AM,14.0,12.2,93,29.92,10.0,SSE,10.4,-,N/A,,Clear,160,2013-01-05 16:15:00
11:15 AM,17.6,14.0,86,29.89,10.0,SE,3.5,-,N/A,,Clear,140,2013-01-05 17:15:00
11:35 AM,17.6,15.8,93,29.89,10.0,Calm,Calm,-,N/A,,Clear,0,2013-01-05 17:35:00
11:55 AM,19.4,15.8,86,29.88,10.0,Calm,Calm,-,N/A,,Clear,0,2013-01-05 17:55:00
12:15 PM,19.4,15.8,86,29.87,10.0,Calm,Calm,-,N/A,,Clear,0,2013-01-05 18:15:00
12:35 PM,21.2,17.6,86,29.86,10.0,South,5.8,-,N/A,,Clear,190,2013-01-05 18:35:00
12:55 PM,21.2,15.8,80,29.85,10.0,South,5.8,-,N/A,,Clear,190,2013-01-05 18:55:00
1:15 PM,21.2,15.8,80,29.84,10.0,South,4.6,-,N/A,,Clear,180,2013-01-05 19:15:00
1:35 PM,21.2,15.8,80,29.84,10.0,South,4.6,-,N/A,,Clear,180,2013-01-05 19:35:00
1:55 PM,21.2,15.8,80,29.82,10.0,South,4.6,-,N/A,,Clear,170,2013-01-05 19:55:00
2:15 PM,21.2,15.8,80,29.83,10.0,South,3.5,-,N/A,,Clear,170,2013-01-05 20:15:00
2:35 PM,23.0,14.0,68,29.82,10.0,Calm,Calm,-,N/A,,Clear,0,2013-01-05 20:35:00
2:55 PM,23.0,14.0,68,29.82,10.0,Calm,Calm,-,N/A,,Clear,0,2013-01-05 20:55:00
3:15 PM,21.2,14.0,74,29.82,10.0,SSE,3.5,-,N/A,,Clear,160,2013-01-05 21:15:00
3:35 PM,21.2,14.0,74,29.81,10.0,SSE,4.6,-,N/A,,Clear,160,2013-01-05 21:35:00
3:55 PM,19.4,14.0,80,29.82,10.0,South,3.5,-,N/A,,Clear,190,2013-01-05 21:55:00
4:15 PM,19.4,12.2,74,29.82,10.0,SW,3.5,-,N/A,,Clear,220,2013-01-05 22:15:00
4:55 PM,17.6,12.2,79,29.83,10.0,West,4.6,-,N/A,,Clear,280,2013-01-05 22:55:00
5:15 PM,19.4,12.2,74,29.84,10.0,WSW,4.6,-,N/A,,Clear,240,2013-01-05 23:15:00
5:35 PM,15.8,12.2,86,29.84,10.0,WSW,4.6,-,N/A,,Clear,250,2013-01-05 23:35:00
5:55 PM,17.6,12.2,79,29.84,10.0,WSW,4.6,-,N/A,,Clear,240,2013-01-05 23:55:00
6:15 PM,17.6,12.2,79,29.85,10.0,WSW,5.8,-,N/A,,Clear,250,2013-01-06 00:15:00
6:35 PM,15.8,12.2,86,29.86,10.0,WSW,5.8,-,N/A,,Clear,250,2013-01-06 00:35:00
6:55 PM,15.8,12.2,86,29.86,10.0,West,5.8,-,N/A,,Clear,280,2013-01-06 00:55:00
7:15 PM,15.8,10.4,79,29.87,10.0,West,6.9,-,N/A,,Clear,280,2013-01-06 01:15:00
7:35 PM,14.0,10.4,86,29.88,10.0,WNW,4.6,-,N/A,,Clear,300,2013-01-06 01:35:00
7:55 PM,17.6,12.2,79,29.87,10.0,NW,3.5,-,N/A,,Clear,310,2013-01-06 01:55:00
8:15 PM,14.0,10.4,86,29.86,10.0,NW,3.5,-,N/A,,Clear,310,2013-01-06 02:15:00
8:35 PM,15.8,10.4,79,29.87,10.0,NW,3.5,-,N/A,,Clear,310,2013-01-06 02:35:00
8:55 PM,14.0,10.4,86,29.89,10.0,WNW,6.9,-,N/A,,Scattered Clouds,290,2013-01-06 02:55:00
9:15 PM,15.8,12.2,86,29.89,10.0,WNW,8.1,-,N/A,,Scattered Clouds,300,2013-01-06 03:15:00
9:35 PM,17.6,12.2,79,29.89,10.0,NW,8.1,-,N/A,,Scattered Clouds,310,2013-01-06 03:35:00
9:55 PM,17.6,12.2,79,29.88,10.0,WNW,3.5,-,N/A,,Scattered Clouds,300,2013-01-06 03:55:00
10:15 PM,17.6,12.2,79,29.89,10.0,NW,4.6,-,N/A,,Overcast,310,2013-01-06 04:15:00
10:35 PM,17.6,14.0,86,29.90,10.0,NW,6.9,-,N/A,,Overcast,310,2013-01-06 04:35:00
10:55 PM,19.4,14.0,80,29.91,10.0,NW,9.2,-,N/A,,Overcast,310,2013-01-06 04:55:00
11:15 PM,19.4,14.0,80,29.91,10.0,NW,6.9,-,N/A,,Overcast,310,2013-01-06 05:15:00
11:35 PM,21.2,15.8,80,29.91,10.0,NW,5.8,-,N/A,,Overcast,320,2013-01-06 05:35:00
11:55 PM,21.2,17.6,86,29.91,10.0,NW,4.6,-,N/A,,Overcast,310,2013-01-06 05:55:00